Regional Weather Roundup
Issued by NWS Cleveland, OH

Home | Current Version | Previous Version | Text Only | Print | Product List | Glossary Off
Versions: 1 2 3 4 5 6 7 8 9 10 11 12 13 14 15 16 17 18 19 20 21 22 23 24 25 26 27 28 29 30 31 32 33 34 35 36 37 38 39 40 41 42 43 44 45 46 47 48 49 50

471
ASUS41 KCLE 200802
RWRCLE
OHIO REGIONAL WEATHER ROUNDUP
NATIONAL WEATHER SERVICE CLEVELAND, OH
400 AM EDT WED SEP 20 2017

NOTE: "FAIR" INDICATES FEW OR NO CLOUDS BELOW 12,000 FEET WITH NO
SIGNIFICANT WEATHER AND/OR OBSTRUCTIONS TO VISIBILITY.

OHZ001>008-015>018-024>027-034-035-043-044-200900-
   NORTHWEST OHIO

CITY           SKY/WX    TMP DP  RH WIND       PRES   REMARKS
DEFIANCE       FOG       64  63  96 CALM      29.94F VSB 1/4
FINDLAY        PTCLDY    67  63  87 S5        29.95S
TOLEDO EXPRESS FOG       64  32  30 CALM      29.94F VSB 3/4
TOLEDO EXEC    CLOUDY    67  65  93 E3        29.96S FOG
LIMA           CLOUDY    66  65  96 S6        29.96S
$$

OHZ009>014-019>023-028>033-038-089-200900-
   NORTHEAST OHIO

CITY           SKY/WX    TMP DP  RH WIND       PRES   REMARKS
CLE-HOPKINS    MOCLDY    70  65  84 CALM      29.98F
CLE-LAKEFRONT  CLOUDY    69  64  84 SW6       29.96S
CUY CO. ARPT   NOT AVBL
LORAIN-ELYRIA  PTCLDY    64  59  83 W3        29.98S HAZE
ASHTABULA      CLOUDY    64  64 100 CALM      29.99S FOG
AKRON-CANTON   CLOUDY    67  62  84 W3        29.99S
WOOSTER        CLOUDY    62  61  96 CALM      29.99S
MANSFIELD      CLOUDY    66  64  93 SE3       29.99S
YOUNGSTOWN     CLOUDY    64  64 100 E5        29.99S
$$

OHZ042-051>053-060>062-070>072-077>081-200900-
  SOUTHWEST OHIO

CITY           SKY/WX    TMP DP  RH WIND       PRES   REMARKS
CINC-COVINGTON PTCLDY    64  64 100 CALM      29.97S FOG
CINC-LUNKEN    FOG       65  65 100 CALM      29.97S VSB 1/4
HAMILTON       FOG       61  61 100 CALM      29.98R VSB 1/4
DAYTON         MOCLDY    64  63  96 S5        29.98S FOG
WRIGHT-PAT AFB NOT AVBL
DAYTON GENERAL MOCLDY    65  64  97 CALM      29.97S FOG
WILMINGTON     FOG       62  62 100 CALM      29.98R VSB 1/4
$$

OHZ036-037-039>041-045>050-054>059-063>069-073>076-082>088-200900-
  CENTRAL AND SOUTHEAST OHIO

CITY           SKY/WX    TMP DP  RH WIND       PRES   REMARKS
COLUMBUS       MOCLDY    69  67  93 CALM      29.96F
OSU AIRPORT    CLOUDY    68  68 100 CALM      29.97S
BOLTON FIELD   CLOUDY    66  66 100 CALM      29.98S FOG
RICKENBACK AFB CLOUDY    66  66 100 CALM      29.96F
NEWARK         CLOUDY    66  64  93 CALM      29.97S FOG
MARION         CLOUDY    63  61  93 CALM      29.98S
LANCASTER      MOCLDY    65  64  97 CALM      29.98S
ZANESVILLE     FOG       63  61  93 CALM      29.98S VSB 1/4
NEW PHILLY     NOT AVBL
$$




USA.gov is the U.S. government's official web portal to all federal, state and local government web resources and services.